RH
37 37 36 35 33 32 32 32 33 35 36 36 36 36 37 41 44 44 46 51 55 56 57 57 55 56 57 58 69 84 85 77 74 73 73 77 83 87 92 95 98 97
35 34 33 34 33 34 34 33 33 34 33 32 32 33 33 36 39 44 50 56 62 63 62 63 66 69 70 71 76 84 86 79 74 72 67 68 76 81 86 92 95 98
32 33 34 35 36 36 35 34 32 32 31 29 29 29 30 35 42 50 58 64 67 66 67 73 79 79 77 78 79 80 82 78 74 74 69 67 71 75 82 88 89 94
33 35 36 36 37 36 35 33 31 29 28 27 26 27 33 41 48 55 63 67 67 67 74 80 81 80 78 80 81 79 79 76 72 74 72 70 71 72 77 84 85 87
35 35 37 37 37 36 33 29 27 25 24 24 25 28 37 46 50 57 63 65 67 71 79 81 78 81 81 78 79 78 76 74 74 74 72 70 72 72 72 79 83 85
34 36 38 39 38 34 28 24 23 23 23 24 25 29 39 45 48 57 63 63 68 75 78 78 77 82 85 80 78 78 76 74 74 73 69 68 71 72 72 76 81 84
35 39 40 39 34 27 23 24 24 23 22 22 25 31 37 41 45 57 64 63 68 74 75 76 76 78 81 80 78 78 77 76 73 71 71 71 72 72 73 75 80 83
39 41 39 33 27 23 23 24 23 23 22 23 27 30 32 36 45 58 66 64 66 72 75 75 76 75 74 75 76 74 74 75 75 74 76 75 72 72 74 76 79 84
41 38 33 26 24 23 22 23 22 23 23 24 26 26 27 35 44 54 66 68 66 71 76 75 75 75 72 71 72 72 74 78 80 81 80 78 75 76 79 79 81 86
38 32 27 24 23 23 22 22 22 21 21 21 21 20 23 32 42 50 64 71 68 69 76 77 75 75 73 70 70 73 77 78 80 83 81 78 79 79 80 83 84 86
33 27 24 23 22 21 20 20 19 18 17 17 15 15 18 27 38 46 59 70 69 68 76 78 74 74 72 71 74 82 84 79 79 84 82 80 83 80 79 82 83 83
27 24 23 23 21 20 19 18 17 16 15 14 13 13 14 20 31 40 51 67 70 68 75 79 74 73 73 72 78 85 87 83 84 86 82 82 86 85 81 81 81 82
25 24 23 22 21 19 18 17 16 15 14 13 12 13 12 15 24 34 46 63 72 70 73 77 76 75 77 78 81 84 85 85 87 87 84 82 85 86 84 83 83 84
25 24 23 22 21 19 17 16 15 15 15 15 13 13 13 12 18 30 43 62 75 74 71 72 72 73 77 81 85 87 87 86 86 88 87 84 85 87 87 86 88 89
24 23 23 22 20 19 18 16 15 15 15 16 14 13 13 11 14 25 41 60 75 78 74 71 70 70 72 78 85 89 89 87 89 91 89 86 86 88 89 89 91 92
25 24 23 22 21 20 18 16 15 15 16 16 15 14 13 13 15 26 42 59 74 80 79 77 76 74 71 75 83 88 88 87 89 89 88 87 89 90 90 89 91 90
28 25 23 23 22 20 18 17 16 16 16 16 16 16 15 15 20 30 44 59 72 80 82 81 81 79 75 77 82 84 87 90 89 87 86 89 92 93 92 92 93 91
30 28 26 24 22 21 19 18 18 17 17 17 18 18 18 18 24 36 48 60 71 80 83 82 82 82 81 81 83 85 88 91 91 89 89 91 93 94 93 92 94 94
33 30 28 25 22 22 21 20 20 19 19 19 19 19 21 24 31 42 53 63 73 80 84 84 85 86 85 86 88 91 93 94 95 94 93 94 94 96 96 94 94 96
35 31 28 25 23 22 22 22 22 22 21 20 20 22 27 32 40 49 60 71 80 85 87 88 89 87 86 90 95 96 96 97 98 98 97 97 96 98 98 97 97 98
36 32 28 26 24 23 24 24 24 24 25 24 25 28 31 37 46 56 68 79 85 86 90 94 95 93 92 94 96 96 97 98 98 99 99 99 98 99 99 98 98 99
36 32 29 26 25 25 26 27 27 28 28 28 30 34 37 43 52 59 70 84 90 90 94 99 100 98 96 94 93 94 97 97 97 99 99 98 98 98 98 97 98 99
37 32 29 28 27 27 28 29 30 32 35 37 39 44 49 56 62 64 70 83 91 93 96 99 99 96 95 95 95 96 98 97 97 98 99 98 98 99 99 98 99 100
37 33 32 30 30 31 31 32 34 39 45 49 51 54 58 62 67 71 75 82 87 89 90 93 96 96 95 95 94 94 97 99 99 98 97 97 98 99 98 98 97 98
38 35 34 33 33 34 34 36 43 50 57 61 61 61 63 66 72 75 76 78 79 80 82 88 94 95 92 90 91 93 95 98 99 98 97 97 98 98 97 96 95 96
40 38 37 36 36 37 39 44 53 62 66 67 66 66 66 68 73 76 76 76 75 76 83 90 93 94 92 91 92 91 90 91 92 92 93 93 93 92 92 92 93 96
Wind_Speed
16 17 18 19 20 20 21 21 22 23 23 24 23 24 25 26 27 28 29 29 30 30 30 31 32 31 29 28 28 26 24 23 22 23 23 22 20 20 20 23 24 23
16 17 19 19 20 20 21 22 22 22 21 21 22 24 25 26 27 28 29 30 30 30 31 32 31 28 24 24 24 24 22 20 19 21 23 22 19 18 18 20 21 22
17 18 19 19 19 20 21 22 21 20 20 20 22 24 26 27 27 28 28 29 28 29 30 29 25 21 19 19 21 21 20 17 16 19 21 20 18 17 17 18 20 21
17 18 18 19 20 20 21 20 20 18 18 20 21 24 25 26 27 28 27 27 27 27 26 23 19 16 15 16 18 18 17 14 14 16 18 17 17 16 16 17 19 19
17 18 18 19 20 20 20 19 18 17 17 19 21 23 24 25 26 27 26 26 25 23 20 17 15 12 11 13 15 15 15 13 11 13 15 15 16 16 17 18 19 19
18 19 19 19 19 19 18 18 17 16 17 19 21 22 23 24 25 25 24 24 22 19 16 13 12 10 10 11 14 14 14 13 12 13 14 14 15 16 18 19 20 21
18 18 18 17 17 17 17 16 16 16 17 19 21 22 23 23 23 23 22 22 20 17 14 12 11 11 11 12 13 14 14 13 13 13 14 14 15 16 18 20 21 22
17 16 15 15 15 15 15 16 16 16 17 19 20 21 22 22 22 21 20 20 19 16 13 12 11 11 11 12 12 13 13 12 12 12 14 15 15 15 17 19 21 22
15 14 13 13 13 14 14 15 15 16 17 18 19 20 21 22 21 20 19 18 17 15 12 10 10 10 10 11 12 12 11 11 11 11 13 14 14 15 16 19 21 21
13 12 12 12 12 13 14 14 15 15 16 17 19 20 20 21 21 20 18 16 15 13 11 10 10 10 9 8 10 10 10 10 11 11 12 13 14 15 17 19 21 20
11 10 10 11 11 12 13 14 15 15 16 17 19 20 20 21 21 20 18 15 13 12 11 10 10 10 9 8 8 9 9 10 11 11 12 12 14 16 18 20 21 20
9 9 9 10 11 12 13 14 15 16 17 18 19 19 20 20 21 20 18 14 11 10 9 9 10 10 10 8 8 9 8 9 10 10 11 13 14 15 16 18 21 21
9 9 9 10 11 12 13 15 16 16 17 18 19 19 20 20 20 20 18 14 10 9 8 8 9 10 9 8 8 8 7 8 9 9 10 12 14 14 14 16 19 21
8 9 9 10 12 13 14 15 16 17 18 18 18 19 19 20 20 19 17 13 9 9 8 7 8 9 9 9 8 8 7 8 8 8 10 12 13 14 14 15 18 20
8 9 10 11 12 14 15 16 16 17 17 18 18 18 18 19 19 18 16 13 9 8 8 8 9 9 9 10 9 7 6 7 6 7 10 11 12 13 15 16 17 19
9 9 10 11 13 14 15 15 15 16 17 17 17 17 17 18 18 17 15 12 9 8 8 8 9 9 9 10 9 8 7 6 6 7 9 9 9 12 15 16 17 18
10 10 11 12 13 14 15 15 15 15 16 16 17 17 17 17 16 15 14 12 9 8 8 8 8 9 9 10 9 7 7 6 7 8 9 8 8 11 12 12 13 16
12 11 11 12 13 14 14 14 15 15 16 16 16 16 16 16 15 14 12 11 7 6 7 7 8 9 9 8 7 6 7 7 7 8 9 9 9 10 11 11 12 14
13 12 12 12 13 14 14 14 15 15 15 16 16 16 16 15 14 13 11 9 7 5 6 6 7 8 7 7 5 4 5 6 6 7 7 7 7 7 8 11 12 13
13 12 12 12 13 13 14 14 15 15 15 16 16 16 14 13 12 11 9 7 6 5 6 7 8 8 6 6 5 5 6 7 7 7 7 7 7 7 8 10 12 13
13 12 12 12 12 13 14 14 15 15 15 15 15 14 13 12 11 10 7 6 6 5 6 7 4 4 3 3 5 7 7 8 8 8 8 8 8 8 8 9 11 14
13 12 12 11 11 12 13 14 14 15 14 15 14 13 13 12 10 9 7 7 7 7 9 11 8 5 3 3 5 7 6 6 6 6 7 8 8 9 9 9 10 12
12 11 11 10 10 11 12 13 13 14 14 14 13 12 11 10 9 8 7 7 7 9 12 12 9 6 5 7 8 8 8 8 7 6 7 8 5 2 5 9 10 11
11 10 9 9 9 9 11 11 12 12 12 12 11 10 10 9 8 7 6 4 3 4 6 4 3 3 4 8 9 8 9 9 9 9 9 8 4 4 4 5 8 9
9 8 7 7 7 8 9 10 10 10 10 10 10 10 9 9 8 7 5 3 1 2 3 2 3 4 5 7 9 10 9 8 9 10 8 5 2 0 1 2 2 1
7 6 6 6 6 7 8 8 7 7 7 8 9 9 9 9 9 7 6 5 3 2 2 2 3 5 6 7 10 12 12 12 11 10 8 6 6 7 6 6 7 7
Wind_Direction
299 298 298 298 298 300 303 306 308 308 307 306 307 306 305 305 305 305 303 300 296 293 291 289 287 284 278 270 264 262 262 264 267 269 264 252 255 269 253 228 220 218
297 296 295 296 298 302 305 308 309 308 308 308 309 307 306 306 306 305 303 301 298 296 294 293 292 287 275 261 256 257 257 260 264 267 266 257 256 269 257 229 219 214
295 294 294 297 301 304 306 308 308 308 310 311 309 307 307 308 308 307 306 304 301 301 300 299 297 289 271 249 243 247 250 256 262 260 262 261 259 269 262 235 218 212
292 292 295 299 302 304 306 306 305 307 309 308 306 306 308 310 311 311 309 306 305 305 304 302 299 286 265 244 237 240 243 251 261 258 259 262 261 268 266 243 225 217
289 292 296 300 302 303 303 302 305 307 306 305 305 307 311 313 314 314 311 309 310 309 304 302 296 279 258 243 236 237 236 239 251 256 258 262 258 262 267 252 234 225
291 296 299 300 301 300 301 304 306 306 305 306 307 309 313 315 316 316 312 312 315 311 303 298 289 272 256 242 236 236 234 233 240 248 254 257 254 256 260 253 241 234
294 297 297 296 297 298 301 303 304 306 306 308 309 311 314 316 317 318 314 313 317 313 304 295 284 272 260 249 243 241 238 234 235 241 245 247 249 252 252 248 244 240
294 294 291 293 296 298 301 303 306 310 310 310 311 313 315 317 318 320 317 315 318 317 308 296 285 274 264 258 252 246 240 236 237 243 243 241 244 248 246 244 243 239
291 290 291 295 298 300 304 308 311 314 313 313 313 314 316 318 321 325 322 316 318 319 309 296 290 279 268 264 260 251 242 233 233 240 240 236 236 238 239 239 238 235
288 289 293 297 300 304 309 313 314 315 314 313 313 315 318 321 325 331 329 318 314 317 309 295 293 289 278 271 262 254 244 231 224 229 234 232 231 231 231 232 232 231
285 290 296 298 303 309 311 312 313 312 312 311 313 318 321 323 328 336 336 322 310 316 313 294 287 286 280 274 262 251 244 234 225 224 231 233 231 231 230 228 228 229
287 293 298 300 305 308 308 310 311 310 311 313 316 321 324 325 329 338 343 331 310 315 319 298 284 280 278 279 268 253 241 232 227 225 230 233 232 233 233 229 227 225
290 294 297 300 304 307 309 311 312 312 313 315 318 322 325 327 331 339 347 341 317 314 322 306 286 279 279 278 268 255 242 234 235 237 237 236 235 234 236 233 228 227
289 292 295 300 306 310 313 314 314 314 315 316 319 322 324 327 332 339 348 347 325 311 312 302 289 283 281 278 269 259 246 236 236 242 244 239 234 232 235 235 233 233
288 292 296 303 310 314 315 315 314 314 314 315 318 321 324 327 332 339 346 348 331 311 303 296 290 287 285 281 275 266 259 251 243 246 251 245 235 231 234 235 235 236
286 293 299 307 313 316 316 315 315 314 314 316 319 323 326 329 334 340 346 345 331 310 301 299 296 292 288 282 273 263 263 267 257 249 252 252 244 240 240 240 240 239
282 292 300 307 312 315 317 318 319 318 318 320 324 327 330 332 336 342 347 347 330 303 297 301 303 300 293 287 277 263 256 256 254 254 256 257 251 245 244 245 244 242
280 289 297 305 311 315 318 320 323 324 324 324 327 329 332 335 338 343 351 352 337 307 300 304 309 310 305 301 294 272 257 252 253 258 259 257 253 249 248 249 246 243
279 285 292 301 308 313 317 322 326 328 326 326 326 330 334 337 341 347 356 0 356 340 323 319 322 320 309 302 299 276 260 262 266 268 265 261 259 259 260 255 247 242
278 281 288 296 303 310 316 322 327 328 328 328 329 334 339 341 346 356 7 15 23 9 352 350 340 322 308 298 289 265 249 251 257 263 265 266 265 265 265 259 250 243
276 277 283 292 300 309 316 323 327 329 330 331 332 336 342 347 355 10 24 40 42 23 21 34 6 302 297 313 300 283 264 253 253 256 255 254 255 255 255 252 249 246
273 275 281 290 299 309 318 325 329 330 330 332 336 341 348 355 5 20 45 65 60 61 82 99 118 147 120 25 336 319 304 286 274 265 256 251 252 257 262 260 252 250
269 273 279 288 300 312 322 328 331 333 334 337 341 347 354 359 5 22 50 72 78 92 106 108 107 106 70 20 359 344 329 318 303 284 267 261 255 240 257 257 251 249
266 271 278 291 306 318 326 332 335 338 340 342 346 350 354 360 5 17 36 55 82 121 137 122 68 45 16 3 359 349 335 328 320 311 294 274 244 129 141 230 243 243
262 269 280 298 316 326 332 337 341 343 347 350 353 353 355 3 9 10 10 359 322 254 242 269 345 344 343 357 6 6 5 1 347 338 330 313 297 66 62 2 352 299
257 268 286 306 322 330 336 342 345 348 354 359 1 3 12 18 16 11 4 353 339 322 302 297 324 336 352 14 24 26 27 25 16 4 360 2 2 360 2 13 33 58